Weather observations for the past three days for
Valdez 2
Imperial (Metric)
Date Time (akdt) Wind (mph) Vis. (mi.) Weather Sky Cond. Temperature (ºF) Relative Humidity Wind Chill (°F) Heat Index (°F) Pressure Precipitation (in)
Air Dwpt 6 hour altimeter (in) sea level (mb) 1 hr 3 hr 6 hr
Max. Min.
17 22:56 E 3 10.00 Light Rain SCT038 OVC048 52 48.9 89% 30 0.0
17 21:56 E 3 10.00 Mostly Cloudy FEW032 BKN043 BKN055 53.1 50 89% 29.99 0.0
17 20:56 Calm 20.00 Mostly Cloudy FEW032 BKN043 BKN055 53.6 48.2 82% 29.97 0.0
17 19:56 SW 7 20.00 Mostly Cloudy FEW034 BKN050 BKN060 57.2 48.2 72% 29.96 0.0
17 18:56 W 14 15.00 Mostly Cloudy FEW034 BKN050 BKN065 57.2 46.4 67% 29.95 0.0
17 17:56 W 13 15.00 Overcast FEW035 BKN050 OVC065 57.2 46.4 67% 29.94 0.0
17 16:56 W 13 15.00 Mostly Cloudy FEW035 BKN065 BKN090 59 48.2 68% 29.93 0.0
17 15:56 W 14 15.00 Mostly Cloudy FEW033 BKN055 BKN075 59 48.2 68% 29.93 0.0
17 14:56 SW 12 15.00 Mostly Cloudy FEW031 SCT055 BKN075 57.2 48.2 72% 29.93 0.0
17 13:56 W 6 15.00 Mostly Cloudy SCT033 BKN060 55.4 48.2 77% 29.94 0.0
17 12:56 W 6 10.00 Mostly Cloudy SCT030 BKN047 55.9 48 75% 29.94 0.0
17 11:56 SW 7 10.00 Mostly Cloudy SCT030 BKN047 54 48 80% 29.94 0.0
17 10:56 SW 6 10.00 Mostly Cloudy FEW025 BKN065 54 48.9 83% 29.95 0.0
17 09:56 Vrbl 3 10.00 Mostly Cloudy FEW007 SCT015 BKN060 53.1 50 89% 29.96 0.0
17 08:56 Calm 7.00 Mostly Cloudy SCT007 BKN012 BKN060 50 48.9 96% 29.97 0.0
17 07:56 Calm 2.00 Mostly Cloudy FEW000 SCT004 BKN050 48.9 48.9 100% 29.99 0.0
17 06:56 Calm 6.00 Fog/Mist SCT004 BKN015 BKN050 46.9 46.9 100% 30.01 0.0
17 05:56 Calm 10.00 Fog/Mist OVC008 46.9 46.9 100% 30.02 1016.4
17 03:56 Calm 10.00 Fog/Mist OVC013 46 46 50 46 100% 30.04 1017.2 0.01
17 02:56 Calm 10.00 Fog/Mist SCT003 OVC011 48 48 100% 30.06 1017.7
17 01:56 E 5 10.00 Fog/Mist OVC003 48 48 100% 47 30.07 1017.9
17 00:56 Calm 10.00 Fog/Mist OVC005 48 48 100% 30.08 1018.3 0.01
16 23:56 Calm 10.00 Fog/Mist BKN003 OVC014 48 48 100% 30.08 1018.5 0.01
16 22:56 Calm 1.25 Fog/Mist SCT005 BKN026 OVC048 48.9 48.9 100% 30.09 1018.7
16 21:56 Calm 1.25 Fog/Mist SCT005 BKN026 OVC048 48.9 48.9 53.1 48.9 100% 30.09 1018.7 0.01
16 20:56 Calm 7.00 Overcast FEW015 SCT035 OVC050 48.9 48.9 100% 30.09 1018.7 0.01
16 19:56 SW 3 7.00 Overcast FEW015 SCT035 OVC045 50 48.9 96% 30.09 1018.7
16 18:56 Calm 7.00 Overcast FEW015 SCT035 OVC045 50 48.9 96% 30.09 1018.7
16 17:56 SW 5 7.00 Overcast FEW025 SCT033 OVC050 52 48 86% 30.09 1018.7
16 16:56 Calm 5.00 Light Rain Fog/Mist SCT019 BKN025 OVC050 52 50 93% 30.08 1018.5
16 15:56 W 5 4.00 Light Rain Fog/Mist FEW007 BKN026 OVC050 51.1 50 51.1 50 96% 30.09 1018.6 0.02
16 14:56 SW 6 4.00 Light Rain Fog/Mist FEW007 BKN035 OVC050 51.1 50 96% 30.08 1018.4
16 13:56 SW 5 4.00 Light Rain Fog/Mist FEW005 BKN043 OVC050 51.1 51.1 100% 30.07 1018.2 0.01
16 12:56 SW 3 3.00 Fog/Mist FEW004 BKN010 OVC048 51.1 51.1 100% 30.07 1018.0 0.01
16 11:56 W 3 3.00 Light Rain Fog/Mist FEW004 BKN011 OVC050 51.1 51.1 100% 30.07 1017.9 0.01
16 10:56 W 3 1.25 Light Rain Fog/Mist FEW001 BKN004 OVC008 50 50 100% 30.06 1017.8
16 09:56 Calm 1.25 Light Rain Fog/Mist FEW001 BKN004 OVC050 50 50 50 46.9 100% 30.06 1017.6 0.01 0.08
16 08:56 Calm 1.25 Light Rain Fog/Mist SCT001 BKN002 OVC012 48.9 48.9 100% 30.05 1017.4 0.01
16 07:56 Calm 0.75 Light Rain Patches Fog FEW000 BKN004 OVC020 48.9 48.9 100% 30.04 1017.1 0.02
16 06:56 Calm 0.50 Light Rain Fog FEW000 BKN004 OVC025 48 48 100% 30.03 1016.8 0.01 0.04
16 05:56 Calm 10.00 Light Rain BKN002 OVC011 48 48 100% 30.02 1016.5 0.02
16 04:56 Calm 10.00 Light Rain OVC004 48 48 100% 30.02 1016.3 0.01
16 03:56 Calm 10.00 Light Rain SCT002 OVC050 46.9 46.9 51.1 46.9 100% 30.02 1016.2 0.02
16 02:56 Calm 10.00 Light Rain OVC002 48.9 48.9 100% 30.02 1016.2
16 01:56 Calm 10.00 Light Rain OVC002 50 50 100% 30.01 1016.1
16 00:56 Calm 10.00 Light Rain FEW002 BKN038 OVC060 50 50 100% 30 1015.8 0.02
15 23:56 Calm 10.00 Light Rain FEW003 BKN014 OVC040 50 50 100% 30 1015.7
15 22:56 Calm 10.00 Light Rain SCT003 OVC037 50 50 100% 29.99 1015.3 0.02
15 21:56 Calm 6.00 Light Rain Fog/Mist BKN005 OVC042 51.1 51.1 55 51.1 100% 29.99 1015.3 0.01 0.03
15 20:56 Calm 7.00 Light Rain FEW009 BKN037 OVC050 51.1 51.1 100% 29.98 1015.1
15 19:56 Calm 7.00 Light Rain FEW023 BKN031 OVC040 51.1 51.1 100% 29.99 1015.3 0.01
15 18:56 SW 5 7.00 Light Rain FEW026 SCT031 OVC040 52 51.1 97% 29.98 1015.1 0.01 0.01
15 17:56 W 13 10.00 Light Rain FEW029 BKN034 OVC043 54 48 80% 29.97 1014.7
15 16:56 SW 3 10.00 Overcast FEW025 SCT045 OVC060 54 46.9 77% 29.96 1014.5
15 15:56 SW 6 10.00 Overcast FEW033 SCT046 OVC060 55 46.9 55.9 50 74% 29.96 1014.2
15 14:56 SW 5 10.00 Overcast FEW025 SCT050 OVC065 55 48 77% 29.95 1014.1
15 13:56 W 6 15.00 Mostly Cloudy FEW025 BKN060 BKN200 55.4 48.2 77% 29.95 0.0
15 12:56 Calm 15.00 Mostly Cloudy FEW015 BKN060 BKN120 55.4 48.2 77% 29.96 0.0
15 11:56 W 5 15.00 Mostly Cloudy FEW010 BKN060 BKN120 53.6 51.8 94% 29.96 0.0
15 10:56 Calm 15.00 Overcast FEW006 FEW025 OVC060 51.8 51.8 100% 29.97 0.0
15 09:56 SW 3 15.00 Overcast FEW005 FEW025 OVC060 51.8 51.8 100% 29.96 0.0
15 08:56 Calm 15.00 Overcast FEW004 BKN055 OVC090 50 50 100% 29.96 0.0
15 07:56 Calm 15.00 Overcast FEW002 BKN055 OVC080 48.2 48.2 100% 29.95 0.0
15 06:56 Calm 15.00 Overcast FEW001 FEW025 OVC060 48.2 48.2 100% 29.95 0.0
15 03:56 Calm 10.00 Light Rain OVC045 50 50 54 50 100% 29.93 1013.4 0.01
15 02:56 E 6 10.00 Light Rain OVC039 51.1 50 96% 29.93 1013.3
15 01:56 W 8 10.00 Light Rain OVC035 54 46 75% 29.92 1012.9
15 00:56 W 16 10.00 Light Rain OVC037 53.1 48 83% 29.91 1012.5 0.01
14 23:56 W 17 10.00 Light Rain BKN045 OVC055 53.1 48.9 86% 29.89 1011.9
Date Time (akdt) Wind (mph) Vis. (mi.) Weather Sky Cond. Air Dwpt Max. Min. Relative Humidity Wind Chill (°F) Heat Index (°F) altimeter (in) sea level (mb) 1 hr 3 hr 6 hr
6 hour
Temperature (ºF) Pressure Precipitation (in)